Time,TemperatureF,DewpointF,PressureIn,WindDirection,WindDirectionDegrees,WindSpeedMPH,WindSpeedGustMPH,Humidity,HourlyPrecipIn,Conditions,Clouds,dailyrainin,SolarRadiationWatts/m^2,SoftwareType,DateUTC
2013-06-30 00:33:00,65.0,57.0,-100.00,NE,51,8.0,11.0,75,0.00,,,0.00,0.000000,,2013-06-30 05:33:00,
2013-06-30 00:43:00,65.0,57.0,-100.00,NE,51,8.0,11.0,75,0.00,,,0.00,0.000000,,2013-06-30 05:43:00,
2013-06-30 00:53:00,65.0,57.0,-100.00,NE,51,8.0,11.0,75,0.00,,,0.00,0.000000,,2013-06-30 05:53:00,
2013-06-30 01:23:00,64.0,58.0,-100.00,NE,56,6.0,9.0,80,0.00,,,0.00,0.000000,,2013-06-30 06:23:00,
2013-06-30 01:34:00,64.0,58.0,-100.00,NE,56,6.0,9.0,80,0.00,,,0.00,0.000000,,2013-06-30 06:34:00,
2013-06-30 01:43:00,64.0,58.0,-100.00,NE,56,6.0,9.0,80,0.00,,,0.00,0.000000,,2013-06-30 06:43:00,
2013-06-30 01:53:00,64.0,58.0,-100.00,NE,56,6.0,9.0,80,0.00,,,0.00,0.000000,,2013-06-30 06:53:00,
2013-06-30 02:22:00,65.0,58.0,-100.00,ENE,69,6.0,8.0,79,0.00,,,0.00,0.000000,,2013-06-30 07:22:00,
2013-06-30 02:33:00,65.0,58.0,-100.00,ENE,69,6.0,8.0,79,0.00,,,0.00,0.000000,,2013-06-30 07:33:00,
2013-06-30 02:44:00,65.0,58.0,-100.00,ENE,69,6.0,8.0,79,0.00,,,0.00,0.000000,,2013-06-30 07:44:00,
2013-06-30 02:53:00,65.0,58.0,-100.00,ENE,69,6.0,8.0,79,0.00,,,0.00,0.000000,,2013-06-30 07:53:00,
2013-06-30 03:22:00,63.0,59.0,-100.00,ESE,104,6.0,8.0,88,0.00,,,0.00,0.000000,,2013-06-30 08:22:00,
2013-06-30 03:33:00,63.0,59.0,-100.00,ESE,104,6.0,8.0,88,0.00,,,0.00,0.000000,,2013-06-30 08:33:00,
2013-06-30 03:42:00,63.0,59.0,-100.00,ESE,104,6.0,8.0,88,0.00,,,0.00,0.000000,,2013-06-30 08:42:00,
2013-06-30 03:53:00,63.0,59.0,-100.00,ESE,104,6.0,8.0,88,0.00,,,0.00,0.000000,,2013-06-30 08:53:00,
2013-06-30 04:23:00,63.0,58.0,-100.00,SSE,158,5.0,7.0,84,0.00,,,0.00,0.000000,,2013-06-30 09:23:00,
2013-06-30 04:33:00,63.0,58.0,-100.00,SSE,158,5.0,7.0,84,0.00,,,0.00,0.000000,,2013-06-30 09:33:00,
2013-06-30 04:43:00,63.0,58.0,-100.00,SSE,158,5.0,7.0,84,0.00,,,0.00,0.000000,,2013-06-30 09:43:00,
2013-06-30 04:53:00,63.0,58.0,-100.00,SSE,158,5.0,7.0,84,0.00,,,0.00,0.000000,,2013-06-30 09:53:00,
2013-06-30 05:22:00,62.0,57.0,-100.00,SE,137,3.0,6.0,83,0.00,,,0.00,0.000000,,2013-06-30 10:22:00,
2013-06-30 05:33:00,62.0,57.0,-100.00,SE,137,3.0,6.0,83,0.00,,,0.00,0.000000,,2013-06-30 10:33:00,
2013-06-30 05:42:00,62.0,57.0,-100.00,SE,137,3.0,6.0,83,0.00,,,0.00,0.000000,,2013-06-30 10:42:00,
2013-06-30 05:53:00,62.0,57.0,-100.00,SE,137,3.0,6.0,83,0.00,,,0.00,0.000000,,2013-06-30 10:53:00,
2013-06-30 06:22:00,63.0,57.0,-100.00,SSE,152,5.0,6.0,81,0.00,,,0.00,2.000000,,2013-06-30 11:22:00,
2013-06-30 06:33:00,63.0,57.0,-100.00,SSE,152,5.0,6.0,81,0.00,,,0.00,2.000000,,2013-06-30 11:33:00,
2013-06-30 06:43:00,63.0,57.0,-100.00,SSE,152,5.0,6.0,81,0.00,,,0.00,2.000000,,2013-06-30 11:43:00,
2013-06-30 06:53:00,63.0,57.0,-100.00,SSE,152,5.0,6.0,81,0.00,,,0.00,2.000000,,2013-06-30 11:53:00,
2013-06-30 07:24:00,63.0,54.0,-100.00,SE,129,2.0,5.0,73,0.00,,,0.00,81.000000,,2013-06-30 12:24:00,
2013-06-30 07:33:00,63.0,54.0,-100.00,SE,129,2.0,5.0,73,0.00,,,0.00,81.000000,,2013-06-30 12:33:00,
2013-06-30 07:43:00,63.0,54.0,-100.00,SE,129,2.0,5.0,73,0.00,,,0.00,81.000000,,2013-06-30 12:43:00,
2013-06-30 07:52:00,63.0,54.0,-100.00,SE,129,2.0,5.0,73,0.00,,,0.00,81.000000,,2013-06-30 12:52:00,
2013-06-30 08:22:00,66.0,56.0,-100.00,SSW,203,4.0,6.0,70,0.00,,,0.00,253.000000,,2013-06-30 13:22:00,
2013-06-30 08:33:00,66.0,56.0,-100.00,SSW,203,4.0,6.0,70,0.00,,,0.00,253.000000,,2013-06-30 13:33:00,
2013-06-30 08:43:00,66.0,56.0,-100.00,SSW,203,4.0,6.0,70,0.00,,,0.00,253.000000,,2013-06-30 13:43:00,
2013-06-30 08:53:00,66.0,56.0,-100.00,SSW,203,4.0,6.0,70,0.00,,,0.00,253.000000,,2013-06-30 13:53:00,
2013-06-30 09:22:00,70.0,54.0,-100.00,SE,143,5.0,7.0,56,0.00,,,0.00,335.000000,,2013-06-30 14:22:00,
2013-06-30 09:33:00,70.0,54.0,-100.00,SE,143,5.0,7.0,56,0.00,,,0.00,335.000000,,2013-06-30 14:33:00,
2013-06-30 09:44:00,70.0,54.0,-100.00,SE,143,5.0,7.0,56,0.00,,,0.00,335.000000,,2013-06-30 14:44:00,
2013-06-30 09:52:00,70.0,54.0,-100.00,SE,143,5.0,7.0,56,0.00,,,0.00,335.000000,,2013-06-30 14:52:00,
2013-06-30 10:34:00,72.0,52.0,-100.00,East,90,7.0,10.0,49,0.00,,,0.00,99.000000,,2013-06-30 15:34:00,
2013-06-30 10:44:00,72.0,52.0,-100.00,East,90,7.0,10.0,49,0.00,,,0.00,99.000000,,2013-06-30 15:44:00,
2013-06-30 10:53:00,72.0,52.0,-100.00,East,90,7.0,10.0,49,0.00,,,0.00,99.000000,,2013-06-30 15:53:00,
2013-06-30 11:21:00,73.0,50.0,-100.00,East,83,7.0,11.0,44,0.00,,,0.00,255.000000,,2013-06-30 16:21:00,
2013-06-30 11:34:00,73.0,50.0,-100.00,East,83,7.0,11.0,44,0.00,,,0.00,255.000000,,2013-06-30 16:34:00,
2013-06-30 11:44:00,73.0,50.0,-100.00,East,83,7.0,11.0,44,0.00,,,0.00,255.000000,,2013-06-30 16:44:00,
2013-06-30 11:53:00,73.0,50.0,-100.00,East,83,7.0,11.0,44,0.00,,,0.00,255.000000,,2013-06-30 16:53:00,
2013-06-30 12:23:00,74.0,51.0,-100.00,East,94,10.0,14.0,44,0.00,,,0.00,935.000000,,2013-06-30 17:23:00,
2013-06-30 12:34:00,74.0,51.0,-100.00,East,94,10.0,14.0,44,0.00,,,0.00,935.000000,,2013-06-30 17:34:00,
2013-06-30 12:43:00,74.0,51.0,-100.00,East,94,10.0,14.0,44,0.00,,,0.00,935.000000,,2013-06-30 17:43:00,
2013-06-30 12:52:00,74.0,51.0,-100.00,East,94,10.0,14.0,44,0.00,,,0.00,935.000000,,2013-06-30 17:52:00,
2013-06-30 13:22:00,74.0,51.0,-100.00,NE,51,9.0,15.0,45,0.00,,,0.00,1034.000000,,2013-06-30 18:22:00,
2013-06-30 13:34:00,74.0,51.0,-100.00,NE,51,9.0,15.0,45,0.00,,,0.00,1034.000000,,2013-06-30 18:34:00,
2013-06-30 13:43:00,74.0,51.0,-100.00,NE,51,9.0,15.0,45,0.00,,,0.00,1034.000000,,2013-06-30 18:43:00,
2013-06-30 13:53:00,74.0,51.0,-100.00,NE,51,9.0,15.0,45,0.00,,,0.00,1034.000000,,2013-06-30 18:53:00,
2013-06-30 14:33:00,74.0,50.0,-100.00,ENE,77,9.0,17.0,43,0.00,,,0.00,997.000000,,2013-06-30 19:33:00,
2013-06-30 14:43:00,74.0,50.0,-100.00,ENE,77,9.0,17.0,43,0.00,,,0.00,997.000000,,2013-06-30 19:43:00,
2013-06-30 14:53:00,74.0,50.0,-100.00,ENE,77,9.0,17.0,43,0.00,,,0.00,997.000000,,2013-06-30 19:53:00,
2013-06-30 15:22:00,75.0,50.0,-100.00,NE,48,10.0,15.0,42,0.00,,,0.00,996.000000,,2013-06-30 20:22:00,
2013-06-30 15:34:00,75.0,50.0,-100.00,NE,48,10.0,15.0,42,0.00,,,0.00,996.000000,,2013-06-30 20:34:00,
2013-06-30 15:42:00,75.0,50.0,-100.00,NE,48,10.0,15.0,42,0.00,,,0.00,996.000000,,2013-06-30 20:42:00,
2013-06-30 15:52:00,75.0,50.0,-100.00,NE,48,10.0,15.0,42,0.00,,,0.00,996.000000,,2013-06-30 20:52:00,
2013-06-30 16:34:00,74.0,49.0,-100.00,ENE,71,8.0,15.0,42,0.00,,,0.00,818.000000,,2013-06-30 21:34:00,
2013-06-30 16:43:00,74.0,49.0,-100.00,ENE,71,8.0,15.0,42,0.00,,,0.00,818.000000,,2013-06-30 21:43:00,
2013-06-30 16:53:00,74.0,49.0,-100.00,ENE,71,8.0,15.0,42,0.00,,,0.00,818.000000,,2013-06-30 21:53:00,
2013-06-30 17:22:00,76.0,51.0,-100.00,ENE,62,7.0,14.0,42,0.00,,,0.00,741.000000,,2013-06-30 22:22:00,
2013-06-30 17:34:00,76.0,51.0,-100.00,ENE,62,7.0,14.0,42,0.00,,,0.00,741.000000,,2013-06-30 22:34:00,
2013-06-30 17:43:00,76.0,51.0,-100.00,ENE,62,7.0,14.0,42,0.00,,,0.00,741.000000,,2013-06-30 22:43:00,
2013-06-30 17:53:00,76.0,51.0,-100.00,ENE,62,7.0,14.0,42,0.00,,,0.00,741.000000,,2013-06-30 22:53:00,
2013-06-30 18:22:00,75.0,50.0,-100.00,NE,54,10.0,15.0,41,0.00,,,0.00,601.000000,,2013-06-30 23:22:00,
2013-06-30 18:33:00,75.0,50.0,-100.00,NE,54,10.0,15.0,41,0.00,,,0.00,601.000000,,2013-06-30 23:33:00,
2013-06-30 18:43:00,75.0,50.0,-100.00,NE,54,10.0,15.0,41,0.00,,,0.00,601.000000,,2013-06-30 23:43:00,
2013-06-30 18:53:00,75.0,50.0,-100.00,NE,54,10.0,15.0,41,0.00,,,0.00,601.000000,,2013-06-30 23:53:00,
2013-06-30 19:22:00,75.0,52.0,-100.00,ENE,69,5.0,15.0,44,0.00,,,0.00,416.000000,,2013-07-01 00:22:00,
2013-06-30 19:33:00,75.0,52.0,-100.00,ENE,69,5.0,15.0,44,0.00,,,0.00,416.000000,,2013-07-01 00:33:00,
2013-06-30 19:42:00,75.0,52.0,-100.00,ENE,69,5.0,15.0,44,0.00,,,0.00,416.000000,,2013-07-01 00:42:00,
2013-06-30 19:52:00,75.0,52.0,-100.00,ENE,69,5.0,15.0,44,0.00,,,0.00,416.000000,,2013-07-01 00:52:00,
2013-06-30 20:22:00,74.0,52.0,-100.00,ENE,65,4.0,9.0,47,0.00,,,0.00,230.000000,,2013-07-01 01:22:00,
2013-06-30 20:33:00,74.0,52.0,-100.00,ENE,65,4.0,9.0,47,0.00,,,0.00,230.000000,,2013-07-01 01:33:00,
2013-06-30 20:42:00,74.0,52.0,-100.00,ENE,65,4.0,9.0,47,0.00,,,0.00,230.000000,,2013-07-01 01:42:00,
2013-06-30 20:52:00,74.0,52.0,-100.00,ENE,65,4.0,9.0,47,0.00,,,0.00,230.000000,,2013-07-01 01:52:00,
2013-06-30 21:22:00,71.0,54.0,-100.00,NE,51,4.0,5.0,55,0.00,,,0.00,78.000000,,2013-07-01 02:22:00,
2013-06-30 21:33:00,71.0,54.0,-100.00,NE,51,4.0,5.0,55,0.00,,,0.00,78.000000,,2013-07-01 02:33:00,
2013-06-30 21:43:00,71.0,54.0,-100.00,NE,51,4.0,5.0,55,0.00,,,0.00,78.000000,,2013-07-01 02:43:00,
2013-06-30 21:53:00,71.0,54.0,-100.00,NE,51,4.0,5.0,55,0.00,,,0.00,78.000000,,2013-07-01 02:53:00,
2013-06-30 22:23:00,69.0,52.0,-100.00,NE,36,3.0,4.0,54,0.00,,,0.00,4.000000,,2013-07-01 03:23:00,
2013-06-30 22:33:00,69.0,52.0,-100.00,NE,36,3.0,4.0,54,0.00,,,0.00,4.000000,,2013-07-01 03:33:00,
2013-06-30 22:43:00,69.0,52.0,-100.00,NE,36,3.0,4.0,54,0.00,,,0.00,4.000000,,2013-07-01 03:43:00,
2013-06-30 22:52:00,69.0,52.0,-100.00,NE,36,3.0,4.0,54,0.00,,,0.00,4.000000,,2013-07-01 03:52:00,
2013-06-30 23:22:00,69.0,48.0,-100.00,NNE,22,4.0,5.0,47,0.00,,,0.00,0.000000,,2013-07-01 04:22:00,